DL1VED Weather Reports


Display with metric or nautical units.
time (UTC)temp
F
wind
direction
speed
MPH
gust
MPH
rain 1hr
in
rain 24hr
in
rain mn
in
humidity
%
barometer
mb
20260506132906 55 333 1.0 5.0 0.00 0.41 0.00 78 1006.4
20260506131406 56 358 3.0 7.0 0.00 0.41 0.00 76 1006.2
20260506125906 57 319 5.0 6.0 0.00 0.41 0.00 74 1006.1
20260506124406 57 340 3.0 7.0 0.00 0.41 0.00 75 1005.9
20260506122906 58 307 4.0 5.0 0.00 0.42 0.00 74 1005.8
20260506121406 57 327 3.0 4.0 0.00 0.42 0.00 75 1005.8
20260506115906 57 11 4.0 6.0 0.00 0.42 0.00 76 1005.7
20260506114406 57 7 4.0 6.0 0.00 0.42 0.00 76 1005.5
20260506112906 58 40 4.0 4.0 0.00 0.42 0.00 77 1005.5
20260506111406 59 293 0.0 6.0 0.00 0.42 0.00 76 1005.5
20260506105906 58 345 5.0 5.0 0.00 0.42 0.42 76 1005.5
20260506104406 58 323 2.0 5.0 0.00 0.42 0.42 76 1005.4
20260506102906 59 291 4.0 6.0 0.00 0.42 0.42 74 1005.4
20260506101406 57 305 0.0 3.0 0.00 0.42 0.42 80 1005.4
20260506095907 58 288 0.0 2.0 0.00 0.42 0.42 79 1005.2
20260506094406 57 320 2.0 3.0 0.00 0.42 0.42 82 1005.1
20260506092906 57 341 2.0 6.0 0.00 0.42 0.42 83 1005.1
20260506091407 57 306 0.0 5.0 0.00 0.42 0.42 82 1005.1
20260506085907 57 326 2.0 2.0 0.00 0.42 0.42 81 1004.8
20260506084407 56 292 2.0 7.0 0.00 0.42 0.42 83 1004.7
20260506082907 56 277 5.0 8.0 0.00 0.42 0.42 83 1004.6
20260506081407 55 303 0.0 5.0 0.00 0.42 0.42 87 1004.5
20260506072907 54 250 5.0 6.0 0.00 0.42 0.42 89 1004.7
20260506071407 53 264 5.0 6.0 0.00 0.42 0.42 89 1004.6
20260506061407 53 236 6.0 9.0 0.00 0.42 0.42 88 1004.2
20260506051407 54 217 3.0 7.0 0.00 0.42 0.42 88 1004.1
20260506044407 54 244 2.0 4.0 0.00 0.42 0.42 87 1004.2
20260506042907 54 223 0.0 0.0 0.00 0.42 0.42 87 1004.3
20260506041407 54 282 0.0 0.0 0.00 0.42 0.42 87 1004.4
20260506035907 54 282 0.0 2.0 0.00 0.42 0.42 88 1004.4
20260506034407 54 281 0.0 0.0 0.00 0.42 0.42 87 1004.6
20260506032907 54 219 0.0 1.0 0.00 0.42 0.42 88 1004.7
20260506031407 54 246 4.0 6.0 0.00 0.42 0.42 88 1004.7
20260506025907 54 268 2.0 5.0 0.00 0.42 0.42 88 1004.7
20260506024407 54 257 3.0 7.0 0.00 0.42 0.42 88 1004.7
20260506022907 54 236 1.0 6.0 0.00 0.42 0.42 88 1004.7
20260506021407 54 275 2.0 5.0 0.00 0.42 0.42 88 1004.6
20260506015907 54 265 4.0 7.0 0.00 0.42 0.42 87 1004.8
20260506014407 55 299 3.0 5.0 0.03 0.42 0.42 88 1004.9
20260506012907 55 293 2.0 6.0 0.05 0.42 0.42 88 1004.9
20260506011407 55 172 0.0 8.0 0.10 0.42 0.42 89 1005.1
20260506005907 55 237 4.0 6.0 0.10 0.42 0.42 88 1005.1
20260506004407 56 255 0.0 0.0 0.07 0.39 0.39 87 1005.2
20260506002907 56 293 0.0 4.0 0.05 0.37 0.37 87 1005.3
20260506001407 56 234 0.0 0.0 0.00 0.32 0.32 87 1005.4
20260505235907 56 234 0.0 0.0 0.00 0.32 0.32 87 1005.6
20260505234407 56 274 0.0 3.0 0.00 0.32 0.32 87 1005.7
20260505232907 56 215 0.0 0.0 0.00 0.32 0.32 87 1005.9
20260505231407 56 253 0.0 0.0 0.00 0.32 0.32 86 1005.9
20260505225907 56 253 0.0 0.0 0.01 0.32 0.32 86 1006.0
20260505224407 56 253 0.0 0.0 0.01 0.32 0.32 87 1006.0
20260505222907 56 253 0.0 0.0 0.02 0.32 0.32 87 1006.1
20260505221407 56 253 0.0 0.0 0.08 0.32 0.32 87 1006.2
20260505215907 56 253 0.0 0.0 0.09 0.31 0.31 87 1006.2
20260505214407 56 253 0.0 0.0 0.14 0.31 0.31 87 1006.2
20260505212907 56 253 0.0 0.0 0.17 0.30 0.30 86 1006.3
20260505211407 56 253 0.0 0.0 0.13 0.24 0.24 86 1006.3
20260505205907 56 253 0.0 0.0 0.12 0.22 0.22 86 1006.3
20260505204407 56 253 0.0 0.0 0.07 0.17 0.17 86 1006.3
20260505202907 56 253 0.0 0.0 0.03 0.13 0.13 85 1006.4
20260505201407 56 253 0.0 0.0 0.02 0.11 0.11 86 1006.4
20260505195959 56 253 0.0 0.0 0.01 0.10 0.10 86 1006.4
20260505195907 56 253 0.0 0.0 0.01 0.10 0.10 86 1006.4
20260505194407 57 253 0.0 0.0 0.01 0.10 0.10 86 1006.4
20260505192907 57 253 0.0 0.0 0.01 0.10 0.10 86 1006.3
20260505191407 57 253 0.0 0.0 0.00 0.09 0.09 85 1006.2
20260505185907 57 253 0.0 0.0 0.00 0.09 0.09 84 1006.2
20260505184407 58 253 0.0 0.0 0.00 0.09 0.09 82 1006.3
20260505182907 58 253 0.0 0.0 0.00 0.09 0.09 82 1006.2
20260505181407 59 253 0.0 0.0 0.00 0.09 0.09 82 1006.3
20260505175907 59 253 0.0 0.0 0.00 0.09 0.09 81 1006.3
20260505174407 59 253 0.0 0.0 0.01 0.09 0.09 81 1006.3
20260505172907 59 253 0.0 0.0 0.01 0.09 0.09 81 1006.3
20260505171407 59 253 0.0 0.0 0.01 0.09 0.09 81 1006.4
20260505165907 59 253 0.0 0.0 0.01 0.09 0.09 81 1006.4
20260505164407 59 253 0.0 0.0 0.00 0.08 0.08 81 1006.4
20260505162907 59 253 0.0 0.0 0.01 0.08 0.08 80 1006.5
20260505161407 60 253 0.0 0.0 0.01 0.08 0.08 80 1006.5
20260505152908 58 232 2.0 4.0 0.01 0.07 0.07 83 1006.8
20260505151408 59 239 0.0 4.0 0.02 0.07 0.07 83 1006.8